Location: Newark
(44.1667°N, 8.2500°E)
Time: 08:42:09
(UTC+00:00)

Envisat - Pass Details

Date: 19 November 2019
Orbit: 764 x 766 km, 98.1° (Epoch: 07 December)

Event Time Altitude Azimuth Distance (km) Brightness Sun altitude
Rises 18:55:56 0° 217° (SW) 3,221 6.7 -31.9°
Reaches altitude 10° 18:59:37 10° 245° (WSW) 2,301 6.1 -32.5°
Maximum altitude 19:01:53 13° 272° (W) 2,105 6.0 -32.9°
Drops below altitude 10° 19:04:09 10° 299° (WNW) 2,308 6.2 -33.3°
Sets 19:07:52 0° 327° (NNW) 3,241 6.7 -34.0°
